{"data":{"norad_id":49215,"epoch":"2026-09-19T19:15:45.099648Z","epoch_age_seconds":86046,"freshness":"FRESH","line1":"1 49215U 21083AF  26262.80260532  .00000047  00000+0  83075-4 0  9996","line2":"2 49215  87.9142 255.5655 0001491  74.7783 285.3515 13.20770649249269","mean_motion":13.20770649,"eccentricity":0.0001491,"inclination_deg":87.9142,"raan_deg":255.5655,"arg_perigee_deg":74.7783,"mean_anomaly_deg":285.3515,"bstar":8.3075e-5,"rev_number":24926,"period_min":109.02725625303,"perigee_km":1180.6506308965,"apogee_km":1182.9049974941,"semimajor_km":7559.9148141953,"source":"CELESTRAK","updated_at":"2026-09-20T09:00:44.666874Z"}}